sat.trackr.live / text

‹ back to catalog

STARLINK-35256

NORAD 66011 · 2025-232G

PAYLOAD ACTIVE UNKNOWN

§ Identity

Operator
Country
US
Launch date
2025-10-16
Launch site
AFETR
Launch vehicle
Mass (kg)
RCS (m²)

Purposes: comms

External: N2YO · Heavens-Above · Gunter

§ Orbital elements

Epoch: 2026-05-25T03:20:21.135264Z

Period
94.10 min
Inclination
53.1581°
Eccentricity
0.0001201
Mean motion
15.30211839 rev/d
Perigee alt
474.4 km
Apogee alt
476.0 km
Semi-major
6,853.3 km
B*
6.1863e-4
RAAN
108.5725°
Arg perigee
102.0853°
Mean anomaly
258.0282°
Rev number
3,514

§ Raw data

STARLINK-352561 66011U 25232G   26145.13913351  .00018014  00000+0  61863-3 0  99922 66011  53.1581 108.5725 0001201 102.0853 258.0282 15.30211839 35143

JSON: /api/v1/satellites/66011 · /tle

For live sub-satellite position, see the globe view (requires WebGL).

§ Visibility from observer

Set your observer location to see the next 7 days of passes ≥ 10°. The values pass through the URL so the page stays shareable.

No JS? Fill the form by hand. The geolocation button needs JavaScript.